ZTF彗星

C/2022 E3 ( ZTF )

English version
Home page
Updated on February 10, 2024

---------------------------------------------------------------------

・ プロフィール

発見日 2022年3月2日
発見光度 17.2等
発見者 Zwicky Transient Facility (ZTF)

・ 写真集

・ 軌道要素

Epoch 2023 Sept. 13.0 TT = JDT 2460200.5
T 2023 Jan. 12.77470 TT                                 Rudenko
q   1.1122654            (2000.0)            P               Q
z  -0.0001930      Peri.  145.81379     -0.60064731     -0.07342768
 +/-0.0000003      Node   302.55594     +0.33749743     +0.87941876
e   1.0002147      Incl.  109.16856     +0.72478845     -0.47035202
>From 8197 observations 2021 July 10-2023 Dec. 11, mean residual 0".6.

・ 星図

・ 光度変化

        m1 = -2.0 + 5 logΔ + 25   log r  [    ,-288]  (              〜2022年 3月30日)
        m1 =  7.0 + 5 logΔ + 10.0 log r  [-288,    ]  (2022年 3月30日〜              )

---------------------------------------------------------------------

軌道要素はM.P.E.C. 2023-X256に掲載されたものです。
星図はステラナビゲータ Ver.10 (アストロアーツ) で作成したものです。
光度グラフはComet for Windowsで作成したものです。

---------------------------------------------------------------------

Copyright(C) Seiichi Yoshida (comet@aerith.net). All rights reserved.